Regional Weather Roundup
Issued by NWS

Home | Current Version | Previous Version | Text Only | Print | Product List | Glossary On
Versions: 1 2 3 4 5 6 7 8 9 10 11 12 13 14 15 16 17 18 19 20 21 22 23 24 25 26 27 28 29 30 31 32 33 34 35 36 37 38 39 40 41 42 43 44 45 46 47 48 49 50
000
ASUS44 KFWD 011115
RWRTX
NORTH TEXAS HOURLY WEATHER ROUNDUP
NATIONAL WEATHER SERVICE FORT WORTH TX
600 AM CDT SUN MAY 01 2016

NOTE: "FAIR" INDICATES FEW OR NO CLOUDS BELOW 12,000 FEET WITH NO
SIGNIFICANT WEATHER AND/OR OBSTRUCTIONS TO VISIBILITY.

TXZ118-119-011200-
DALLAS/FORT WORTH METROPLEX

CITY           SKY/WX    TMP DP  RH WIND       PRES   REMARKS
DFW AIRPORT    MOCLDY    59  49  69 N12       29.93R
DALLAS LOVE    PTCLDY    61  50  67 N10       29.93R
FTW MEACHAM    CLEAR     58  50  75 N15       29.93R
DAL-EXECUTIVE  PTCLDY    60  56  86 N7        29.92R
FTW-ALLIANCE   PTCLDY    56  49  77 N12       29.94R
FTW-NAS-JRB    CLEAR     59  50  72 N13       29.94R
FTW-SPINKS     CLEAR     57  53  86 N10       29.94R
ARLINGTON      CLEAR     63  51  65 N12       29.93R
GRAND PRAIRIE  CLEAR     60  52  75 N10       29.94R
ADDISON        CLEAR     59  50  72 MISG      29.95R
MESQUITE       PTCLDY    60  59  96 N12G17    29.92R
LANCASTER      MOCLDY    61  58  90 N13       29.92R
$$

TXZ091>094-102>105-117-120-121-131>134-011200-
NORTH CENTRAL TEXAS

CITY           SKY/WX    TMP DP  RH WIND       PRES   REMARKS
SHRMAN/DENISON CLEAR     51  45  80 N6        29.97R
GAINESVILLE    CLEAR     52  47  82 NW9       30.01R
BOWIE          PTCLDY    52  45  77 N14G21    30.00S
BRIDGEPORT     CLEAR     55  49  80 N9        29.99R
DECATUR        CLEAR     55  45  68 N9        29.97S
DENTON         CLEAR     55  49  80 N12       29.95R
MCKINNEY       CLEAR     56  51  84 N8        29.94R
GREENVILLE     CLEAR     59  55  88 N7        29.92R
ROCKWALL       CLEAR     58  56  94 N8        29.91R
TERRELL        CLEAR     60  58  92 N7        29.91R
WAXAHACHIE     CLEAR     59  59 100 N8        29.92R
CLEBURNE       PTCLDY    59  57  94 N10       29.94R
GRANBURY       PTCLDY    58  52  79 N5        29.96R
$$

TXZ083>090-098>101-113>116-127>130-139>142-154-155-011200-
WESTERN NORTH TEXAS

CITY           SKY/WX    TMP DP  RH WIND       PRES   REMARKS
WICHITA FALLS  PTCLDY    50  40  68 N13       30.05R
WF-KICKAPOO    PTCLDY    54  40  59 N14G21    30.06R
VERNON         CLEAR     48  35  60 N7        30.09R
ABILENE        CLEAR     52  45  77 N21G30    29.97S
ABILENE-DYESS  CLEAR     53  44  71 N21G30    29.97R
BRECKENRIDGE   CLEAR     54  47  76 N15G22    29.98S
GRAHAM         PTCLDY    53  47  82 N13       29.99R
MINERAL WELLS  PTCLDY    56  48  74 N8        29.94R
STEPHENVILLE   CLEAR     56  49  80 N7        29.96R
COMANCHE       CLEAR     55  53  95 N6        29.95R
BROWNWOOD      CLEAR     57  50  77 NE7       29.94R
COLEMAN        CLEAR     57  48  73 NE10      29.95R
$$

TXZ143>147-156>162-174-175-011200-
CENTRAL TEXAS

CITY           SKY/WX    TMP DP  RH WIND       PRES   REMARKS
WACO           CLEAR     60  59  96 N7        29.88R
WACO-MCGREGOR  CLEAR     60  59  96 NW8       29.88S
HILLSBORO      CLEAR     58  58  99 N5        29.90R FOG
CORSICANA      CLEAR     63  59  87 N8        29.88S
MEXIA          CLEAR     62  62  98 N6        29.86R
HEARNE         CLEAR     66  63  90 CALM      29.84S
CAMERON        CLEAR     63  62  97 N3        29.85R FOG
TEMPLE         CLEAR     61  60  97 N7        29.87R
KILLEEN        CLEAR     58  57  97 N9        29.86S
KILLEEN-SKYLRK CLEAR     61  59  93 N8        29.87S
FORT HOOD      CLEAR     59  58  98 N7        29.85S
GATESVILLE     CLEAR     61  59  94 MISG      29.91S
HAMILTON       CLEAR     57  57 100 N5        29.93R
LAMPASAS       CLEAR     58  56  93 N5        29.88S
$$

TXZ095>097-106>112-122>126-135>138-148>153-164>167-011200-
EAST TEXAS

CITY           SKY/WX    TMP DP  RH WIND       PRES   REMARKS
PARIS          CLEAR     57  46  67 N9        29.92R
SULPHUR SPRNGS CLEAR     60  59  96 N7        29.93R
MOUNT PLEASANT CLEAR     61  60  96 N8        29.90S
MINEOLA        CLEAR     63  61  94 N3        29.89F
TYLER          CLEAR     63  58  83 N6        29.87S
LONGVIEW       CLEAR     63  60  90 N6        29.84F
MARSHALL       CLEAR     65  62  90 N5        29.87S
ATHENS         CLEAR     61  61 100 NE6       29.86S
PALESTINE      CLEAR     64  61  89 N7        29.87S
JACKSONVILLE   CLEAR     63  62  95 N7        29.87F
HENDERSON      CLEAR     64  60  88 N5        29.86F
CENTER         FAIR      68  66  91 N3        29.85R
NACOGDOCHES    CLEAR     66  63  88 N6        29.83S
LUFKIN         CLEAR     68  64  87 N5        29.83R
$$

SUPPLEMENTAL OBSERVATIONS (CENTRAL)

CITY           SKY/WX    TMP DP  RH WIND       PRES   REMARKS
LAKE TEXOMA      N/A     61  52  72 N9          N/A
CADDO GRASSLND   N/A     52  50  93 CALM        N/A
PAT MAYSE LAKE   N/A     54  52  94 NW5         N/A
GREENVILLE       N/A     57  52  82 N6          N/A
CEDAR HILL       N/A     61  57  88 NE6         N/A
ATHENS           N/A     61  59  94 N2          N/A
LAKE LIMESTONE   N/A     64  59  82 NE9         N/A
MCGREGOR         N/A     61  59  94 N5          N/A
TEMPLE           N/A     64  59  82 NE15        N/A
$$

SUPPLEMENTAL OBSERVATIONS (WEST)

CITY           SKY/WX    TMP DP  RH WIND       PRES   REMARKS
MILLERS CREEK    N/A     50  37  62 N10G18      N/A
POSSUM KINGDOM   N/A     54  46  76 N13         N/A
LBJ GRASSLAND    N/A     55  46  71 N9          N/A
GRANBURY         N/A     57  50  77 VRB6        N/A
COMANCHE         N/A     54  48  82 VRB8        N/A
HAMBY            N/A     52  45  76 N12G20      N/A
IVIE RESERVOIR   N/A     57  52  82 NE6         N/A
COLORADO BEND    N/A     57  52  82 E5          N/A
$$

SUPPLEMENTAL OBSERVATIONS (EAST)

CITY           SKY/WX    TMP DP  RH WIND       PRES   REMARKS
CLARKSVILLE      N/A     57  55  94 N3          N/A
TEXARKANA        N/A     64  61  88 N1          N/A
LINDEN           N/A     63  59  88 CALM        N/A
CADDO LAKE       N/A     61  57  88 CALM        N/A
GILMER           N/A     63  59  88 N6          N/A
HENDERSON        N/A     64  61  88 VRB6        N/A
LUFKIN           N/A     68  63  83 MISG        N/A
N SABINE NF      N/A     66  63  88 MISG        N/A
S SABINE NF      N/A     70  64  83 VRB3        N/A
$$

SUPPLEMENTAL OBSERVATIONS ARE A COLLECTION OF AUTOMATED INSTRUMENTS
THAT ARE MAINTAINED BY A VARIETY OF FEDERAL AND STATE AGENCIES.
CERTAIN ELEMENTS...SUCH AS HUMIDITY VALUES AND SUSTAINED WIND
SPEEDS...MAY BE APPROXIMATED.





USA.gov is the U.S. government's official web portal to all federal, state and local government web resources and services.